Location: Jesenik
(50.2330°N, 17.2000°E)
Time: 01:16:33
(UTC+02:00)

ISS - Visible Passes

Search period start: 06 May 2021 00:00
Search period end: 16 May 2021 00:00
Orbit: 418 x 421 km, 51.6° (Epoch: 05 May)

Date Brightness Start Highest point End Pass type
(mag) Time Alt. Az. Time Alt. Az. Time Alt. Az.
06 May -3.8 02:48:19 61° S 02:48:35 64° SSE 02:51:56 10° ENE visible
06 May -3.4 04:22:04 10° W 04:25:26 67° N 04:28:49 10° E visible
07 May -2.4 02:02:24 31° E 02:02:24 31° E 02:04:28 10° ENE visible
07 May -3.6 03:35:20 16° W 03:37:58 72° N 03:41:22 10° ENE visible
08 May -1.1 01:16:27 13° E 01:16:27 13° E 01:16:57 10° E visible
08 May -3.8 02:49:24 40° W 02:50:30 82° NNW 02:53:54 10° ENE visible
08 May -3.5 04:24:05 10° WNW 04:27:28 72° N 04:30:51 10° E visible
09 May -3.7 02:03:25 69° E 02:03:25 69° E 02:06:28 10° ENE visible
09 May -3.4 03:36:37 10° W 03:39:59 67° N 03:43:22 10° E visible
10 May -2.0 01:17:25 25° E 01:17:25 25° E 01:19:00 10° ENE visible
10 May -3.5 02:50:21 20° W 02:52:30 67° N 02:55:53 10° E visible
10 May -3.8 04:26:02 10° WNW 04:29:26 83° SSW 04:32:49 10° ESE visible
11 May -1.0 00:31:23 11° E 00:31:23 11° E 00:31:31 10° ENE visible
11 May -3.6 02:04:19 50° WNW 02:05:01 71° N 02:08:25 10° ENE visible
11 May -3.7 03:38:35 10° WNW 03:41:59 82° NNE 03:45:22 10° E visible
12 May -3.2 01:18:13 54° ENE 01:18:13 54° ENE 01:20:57 10° ENE visible
12 May -3.5 02:51:09 10° WNW 02:54:31 72° N 02:57:53 10° E visible
13 May -1.9 00:32:03 23° ENE 00:32:03 23° ENE 00:33:29 10° ENE visible
13 May -3.4 02:04:58 22° WNW 02:07:01 67° N 02:10:23 10° E visible
13 May -3.8 03:40:31 10° WNW 03:43:53 64° SSW 03:47:13 10° ESE visible
13 May -1.2 23:45:40 12° ENE 23:45:40 12° ENE 23:46:01 10° ENE visible
14 May -3.5 01:18:33 42° WNW 01:19:32 67° N 01:22:54 10° E visible
14 May -3.9 02:53:03 10° WNW 02:56:27 82° SSW 02:59:50 10° ESE visible
14 May -1.7 21:18:15 10° SSE 21:19:06 11° SE 21:19:58 10° ESE visible
14 May -3.6 22:52:01 10° SW 22:55:16 47° SSE 22:58:32 10° ENE visible
15 May -3.6 00:28:39 10° W 00:32:02 71° N 00:35:24 10° ENE visible
15 May -3.8 02:05:36 10° WNW 02:08:59 82° NNE 02:12:22 10° E visible
15 May -3.1 03:42:33 10° W 03:45:38 33° SSW 03:48:41 10° SSE visible
15 May -3.1 22:04:50 10° SW 22:07:54 33° SSE 22:10:59 10° E visible
15 May -3.8 23:41:10 10° W 23:44:32 81° NNW 23:47:56 10° ENE visible
